This is the latest recevied weather packets stored in our database for station/object K7MT-WX. If no packets are shown the sender has not sent any weather packets the latest 10 day(s).
| Time | Temp. | Humidity | Pressure | Rain* | Wind** | Luminosity | Snow |
|---|---|---|---|---|---|---|---|
| 1788579469 | 16.11° C | 66% | 1014.8 hPa | 0 mm | - | - | - |
| 1788578569 | 17.22° C | 59% | 1015.4 hPa | 0 mm | - | - | - |
| 1788577669 | 17.22° C | 60% | 1014.6 hPa | 0 mm | - | - | - |
| 1788576769 | 17.22° C | 60% | 1014.3 hPa | 0 mm | - | - | - |
| 1788575869 | 17.22° C | 61% | 1014.1 hPa | 0 mm | - | - | - |
| 1788574969 | 16.67° C | 60% | 1014 hPa | 0 mm | - | - | - |
| 1788574069 | 16.67° C | 61% | 1013.8 hPa | 0 mm | - | - | - |
| 1788573169 | 17.78° C | 62% | 1013.4 hPa | 0 mm | - | - | - |
| 1788572269 | 18.89° C | 57% | 1013 hPa | 0 mm | - | - | - |
| 1788571369 | 20.56° C | 49% | 1012.5 hPa | 0 mm | - | - | - |
| 1788570469 | 21.11° C | 45% | 1011.9 hPa | 0 mm | - | - | - |
| 1788569569 | 21.67° C | 45% | 1011.5 hPa | 0 mm | - | - | - |
| 1788568669 | 22.22° C | 44% | 1011.2 hPa | 0 mm | - | - | - |
| 1788567769 | 22.78° C | 44% | 1011.1 hPa | 0 mm | - | - | - |
| 1788566869 | 22.78° C | 45% | 1011.1 hPa | 0 mm | - | - | - |
| 1788565969 | 22.22° C | 50% | 1011.1 hPa | 0 mm | - | - | - |
| 1788565069 | 24.44° C | 38% | 1011.1 hPa | 0 mm | - | - | - |
| 1788564169 | 23.89° C | 33% | 1011.2 hPa | 0 mm | - | - | - |
| 1788563269 | 24.44° C | 33% | 1010.9 hPa | 0 mm | - | - | - |
| 1788562369 | 24.44° C | 35% | 1010.8 hPa | 0 mm | - | - | - |
| 1788561469 | 25° C | 30% | 1010.8 hPa | 0 mm | - | - | - |
| 1788560569 | 25° C | 31% | 1011 hPa | 0 mm | - | - | - |
| 1788559669 | 25° C | 31% | 1010.9 hPa | 0 mm | - | - | - |
| 1788558769 | 25° C | 32% | 1010.9 hPa | 0 mm | - | - | - |
| 1788557869 | 24.44° C | 34% | 1010.7 hPa | 0 mm | - | - | - |
* Rain latest hour (hover to see other rain measurements)
** Current wind speed in m/s (hover to see current wind gust speed)